SDM6320 UMKK-ULLI

Flight info

Callsign SDM6320
Flight time N/A
Altitude 37000
Route PELUG3M PELUG DCT KEDUX DCT PIVAX DCT PINIX DCT PIRUX DCT PISIM DCT PIDIN DCT ARANS/K0865F370 DCT PISIS DCT AKARU AKARU1V
Aircraft A319/M-SDE3FGHIRWY/LB1

Departure

Time 2026-04-28 13:40
Airport Khrabrovo Airport (UMKK)

Arrival

Time N/A
Airport Pulkovo Airport (ULLI)
Time Latitude Longitude Altitude Speed Heading
2026-04-28 13:20 54.88411 20.58650 27 ft 0 kts 155°
2026-04-28 13:28 54.88416 20.58646 27 ft 2 kts 155°
2026-04-28 13:29 54.88431 20.58634 27 ft 2 kts 155°
2026-04-28 13:29 54.88446 20.58622 27 ft 2 kts 158°
2026-04-28 13:29 54.88461 20.58615 27 ft 2 kts 190°
2026-04-28 13:29 54.88477 20.58623 27 ft 2 kts 196°
2026-04-28 13:30 54.88493 20.58628 27 ft 2 kts 175°
2026-04-28 13:30 54.88509 20.58624 27 ft 2 kts 161°
2026-04-28 13:30 54.88519 20.58617 27 ft 0 kts 155°
2026-04-28 13:35 54.88495 20.58625 27 ft 6 kts 184°
2026-04-28 13:36 54.88456 20.58549 27 ft 11 kts 242°
2026-04-28 13:36 54.88412 20.58398 27 ft 17 kts 239°
2026-04-28 13:36 54.88338 20.58197 27 ft 22 kts 237°
2026-04-28 13:36 54.88262 20.57936 27 ft 19 kts 247°
2026-04-28 13:37 54.88229 20.57759 27 ft 12 kts 290°
2026-04-28 13:37 54.88319 20.57673 26 ft 18 kts 335°
2026-04-28 13:37 54.88442 20.57578 25 ft 6 kts 336°
2026-04-28 13:37 54.88443 20.57577 29 ft 0 kts 336°
2026-04-28 13:39 54.88459 20.57565 25 ft 7 kts 336°
2026-04-28 13:39 54.88535 20.57519 20 ft 16 kts
2026-04-28 13:40 54.88609 20.57703 22 ft 30 kts 66°
2026-04-28 13:40 54.88830 20.58547 23 ft 121 kts 66°
2026-04-28 13:40 54.89266 20.60228 184 ft 173 kts 60°
2026-04-28 13:40 54.89762 20.62253 660 ft 192 kts 63°
2026-04-28 13:41 54.90302 20.64399 1500 ft 192 kts 60°
2026-04-28 13:41 54.90844 20.66506 2444 ft 190 kts 59°
2026-04-28 13:41 54.91374 20.68567 3384 ft 183 kts 59°
2026-04-28 13:41 54.91903 20.70560 4324 ft 179 kts 54°
2026-04-28 13:42 54.92672 20.72086 5259 ft 160 kts 31°
2026-04-28 13:42 54.93594 20.72908 6185 ft 139 kts 13°
2026-04-28 13:42 54.94454 20.73146 7079 ft 111 kts 359°
2026-04-28 13:42 54.95175 20.73005 7518 ft 113 kts 347°
2026-04-28 13:43 54.96035 20.72442 7752 ft 137 kts 335°
2026-04-28 13:43 54.96900 20.71452 8098 ft 170 kts 323°
2026-04-28 13:43 54.97749 20.69830 8737 ft 186 kts 312°
2026-04-28 13:43 54.98548 20.68027 9731 ft 191 kts 311°
2026-04-28 13:44 54.99370 20.66147 10623 ft 198 kts 311°
2026-04-28 13:44 55.00222 20.64227 11552 ft 203 kts 312°
2026-04-28 13:44 55.01100 20.62268 12506 ft 207 kts 313°
2026-04-28 13:44 55.02003 20.60276 13487 ft 211 kts 313°
2026-04-28 13:45 55.02921 20.58270 14446 ft 213 kts 314°
2026-04-28 13:45 55.03854 20.56244 15349 ft 214 kts 314°
2026-04-28 13:45 55.04789 20.54220 16278 ft 213 kts 314°
2026-04-28 13:45 55.05709 20.52225 17226 ft 209 kts 315°
2026-04-28 13:46 55.06612 20.50269 18123 ft 207 kts 315°
2026-04-28 13:46 55.07523 20.48308 18822 ft 209 kts 315°
2026-04-28 13:46 55.08440 20.46338 19470 ft 210 kts 316°
2026-04-28 13:46 55.09366 20.44353 20125 ft 211 kts 316°
2026-04-28 13:47 55.10289 20.42363 20778 ft 211 kts 315°
2026-04-28 13:47 55.11215 20.40358 21426 ft 212 kts 316°
2026-04-28 13:47 55.12144 20.38346 22068 ft 213 kts 316°
2026-04-28 13:47 55.13078 20.36329 22706 ft 214 kts 316°
2026-04-28 13:48 55.14028 20.34278 23339 ft 215 kts 316°
2026-04-28 13:48 55.14683 20.32984 23744 ft 213 kts 323°
2026-04-28 13:48 55.15890 20.31548 24252 ft 210 kts 338°
2026-04-28 13:48 55.17701 20.30308 24864 ft 213 kts 340°
2026-04-28 13:49 55.18634 20.29674 25169 ft 214 kts 339°
2026-04-28 13:49 55.20034 20.28719 25606 ft 217 kts 339°
2026-04-28 13:49 55.21447 20.27753 26038 ft 220 kts 339°
2026-04-28 13:49 55.22879 20.26771 26466 ft 222 kts 339°
2026-04-28 13:50 55.24323 20.25777 26890 ft 225 kts 339°
2026-04-28 13:50 55.25791 20.24768 27306 ft 228 kts 339°
2026-04-28 13:50 55.27273 20.23748 27715 ft 230 kts 339°
2026-04-28 13:50 55.28771 20.22716 28120 ft 233 kts 339°
2026-04-28 13:51 55.30287 20.21673 28520 ft 235 kts 339°
2026-04-28 13:51 55.31820 20.20614 28909 ft 238 kts 339°
2026-04-28 13:51 55.33369 20.19545 29295 ft 240 kts 339°
2026-04-28 13:51 55.34932 20.18463 29674 ft 243 kts 339°
2026-04-28 13:52 55.36515 20.17367 30043 ft 245 kts 339°
2026-04-28 13:52 55.38107 20.16263 30402 ft 248 kts 339°
2026-04-28 13:52 55.39718 20.15148 30690 ft 250 kts 339°
2026-04-28 13:52 55.41348 20.14023 30973 ft 252 kts 339°
2026-04-28 13:53 55.42988 20.12887 31250 ft 255 kts 339°
2026-04-28 13:53 55.44646 20.11738 31527 ft 257 kts 339°
2026-04-28 13:53 55.46318 20.10576 31793 ft 259 kts 339°
2026-04-28 13:53 55.48003 20.09402 32057 ft 262 kts 339°
2026-04-28 13:54 55.49701 20.08216 32323 ft 264 kts 339°
2026-04-28 13:54 55.51416 20.07022 32584 ft 266 kts 339°
2026-04-28 13:54 55.53140 20.05819 32833 ft 268 kts 339°
2026-04-28 13:54 55.54884 20.04599 33087 ft 270 kts 339°
2026-04-28 13:55 55.56636 20.03372 33337 ft 272 kts 339°
2026-04-28 13:55 55.58404 20.02135 33577 ft 274 kts 339°
2026-04-28 13:55 55.60187 20.00889 33810 ft 277 kts 339°
2026-04-28 13:55 55.61983 19.99633 34047 ft 279 kts 339°
2026-04-28 13:56 55.63793 19.98365 34270 ft 281 kts 339°
2026-04-28 13:56 55.65614 19.97087 34473 ft 283 kts 339°
2026-04-28 13:56 55.67448 19.95795 34651 ft 285 kts 339°
2026-04-28 13:56 55.69296 19.94492 34823 ft 287 kts 339°
2026-04-28 13:57 55.71159 19.93179 34995 ft 289 kts 339°
2026-04-28 13:57 55.73032 19.91857 35163 ft 291 kts 339°
2026-04-28 13:57 55.74914 19.90529 35333 ft 292 kts 339°
2026-04-28 13:57 55.76815 19.89185 35450 ft 296 kts 339°
2026-04-28 13:58 55.78742 19.87822 35568 ft 300 kts 339°
2026-04-28 13:58 55.80686 19.86441 35689 ft 303 kts 339°
2026-04-28 13:58 55.82661 19.85038 35812 ft 307 kts 339°
2026-04-28 13:58 55.84653 19.83626 35932 ft 311 kts 339°
2026-04-28 13:59 55.86676 19.82191 36053 ft 314 kts 339°
2026-04-28 13:59 55.88722 19.80734 36097 ft 322 kts 339°
2026-04-28 13:59 55.90852 19.79217 35930 ft 335 kts 339°
2026-04-28 13:59 55.93041 19.77657 35931 ft 343 kts 339°
2026-04-28 14:00 55.97585 19.74405 35929 ft 360 kts 339°
2026-04-28 14:00 56.02342 19.71000 35932 ft 376 kts 339°
2026-04-28 14:01 56.07337 19.67407 35935 ft 392 kts 339°
2026-04-28 14:01 56.12494 19.63695 35937 ft 406 kts 339°
2026-04-28 14:02 56.17839 19.59909 35939 ft 419 kts 343°
2026-04-28 14:02 56.23678 19.58655 35943 ft 432 kts
2026-04-28 14:03 56.29377 19.60674 34389 ft 439 kts 11°
2026-04-28 14:03 56.35431 19.63311 34417 ft 456 kts 14°
2026-04-28 14:04 56.41692 19.66099 34422 ft 471 kts 13°
2026-04-28 14:04 56.48152 19.68910 34472 ft 483 kts 13°
2026-04-28 14:05 56.51425 19.70318 34713 ft 484 kts 13°
2026-04-28 14:05 56.54711 19.71725 34944 ft 486 kts 13°
2026-04-28 14:05 56.58008 19.73143 35159 ft 487 kts 13°
2026-04-28 14:05 56.61310 19.74580 35365 ft 489 kts 13°
2026-04-28 14:06 56.64617 19.76034 35653 ft 488 kts 13°
2026-04-28 14:06 56.67900 19.77482 36146 ft 482 kts 13°
2026-04-28 14:06 56.71134 19.78909 36631 ft 476 kts 13°
2026-04-28 14:06 56.74342 19.80325 36954 ft 475 kts 13°
2026-04-28 14:07 56.80836 19.83176 36948 ft 485 kts 13°
2026-04-28 14:07 56.87418 19.86068 37450 ft 482 kts 13°
2026-04-28 14:08 56.90661 19.87497 37896 ft 477 kts 13°
2026-04-28 14:08 56.93908 19.88939 37892 ft 482 kts 13°
2026-04-28 14:08 57.00440 19.91900 38272 ft 482 kts 14°
2026-04-28 14:09 57.03694 19.93398 38489 ft 481 kts 14°
2026-04-28 14:09 57.06939 19.94896 38695 ft 480 kts 14°
2026-04-28 14:09 57.10180 19.96395 38894 ft 480 kts 14°
2026-04-28 14:09 57.13408 19.97913 38991 ft 481 kts 14°
2026-04-28 14:10 57.16685 19.99558 38644 ft 492 kts 15°
2026-04-28 14:10 57.19964 20.01222 39136 ft 484 kts 15°
2026-04-28 14:10 57.26510 20.04549 38945 ft 495 kts 15°
2026-04-28 14:11 57.29824 20.06235 39252 ft 491 kts 15°
2026-04-28 14:11 57.33100 20.07905 39621 ft 486 kts 15°
2026-04-28 14:11 57.36335 20.09555 39984 ft 480 kts 15°
2026-04-28 14:11 57.39568 20.11206 39856 ft 486 kts 15°
2026-04-28 14:12 57.42891 20.12904 38916 ft 508 kts 15°
2026-04-28 14:12 57.46271 20.14643 38945 ft 495 kts 15°
2026-04-28 14:12 57.49566 20.16344 38405 ft 490 kts 15°
2026-04-28 14:12 57.52893 20.18065 37564 ft 491 kts 15°
2026-04-28 14:13 57.56106 20.19728 37169 ft 482 kts 15°
2026-04-28 14:13 57.59325 20.21397 36696 ft 476 kts 15°
2026-04-28 14:13 57.62483 20.23035 38310 ft 464 kts 14°
2026-04-28 14:13 57.65527 20.24621 38576 ft 438 kts 14°
2026-04-28 14:14 57.68476 20.26227 37118 ft 455 kts 15°
2026-04-28 14:14 57.71484 20.27917 37123 ft 436 kts 15°
2026-04-28 14:14 57.74329 20.29525 37194 ft 418 kts 15°
2026-04-28 14:14 57.77061 20.31082 37220 ft 402 kts 15°
2026-04-28 14:15 57.79681 20.32588 37218 ft 387 kts 15°
2026-04-28 14:15 57.82211 20.34049 37214 ft 372 kts 15°
2026-04-28 14:15 57.84633 20.35455 37209 ft 358 kts 15°
2026-04-28 14:15 57.87004 20.36835 36794 ft 356 kts 15°
2026-04-28 14:16 57.89369 20.38219 36381 ft 354 kts 15°
2026-04-28 14:16 57.91709 20.39591 36024 ft 351 kts 15°
2026-04-28 14:16 57.94027 20.40955 35672 ft 347 kts 15°
2026-04-28 14:16 57.96321 20.42309 35338 ft 344 kts 15°
2026-04-28 14:17 57.98593 20.43653 35010 ft 341 kts 15°
2026-04-28 14:17 58.00846 20.44990 34693 ft 338 kts 15°
2026-04-28 14:17 58.03071 20.46315 34384 ft 334 kts 15°
2026-04-28 14:17 58.05266 20.47624 34259 ft 324 kts 15°
2026-04-28 14:18 58.07355 20.48880 34373 ft 306 kts 15°
2026-04-28 14:18 58.09313 20.50067 34476 ft 286 kts 15°
2026-04-28 14:18 58.11136 20.51184 34568 ft 266 kts 15°
2026-04-28 14:18 58.12861 20.52251 34323 ft 259 kts 15°
2026-04-28 14:19 58.14604 20.53330 33526 ft 269 kts 15°
2026-04-28 14:19 58.16405 20.54441 32989 ft 274 kts 15°
2026-04-28 14:19 58.18223 20.55564 33313 ft 270 kts 15°
2026-04-28 14:19 58.19938 20.56632 34125 ft 251 kts 15°
2026-04-28 14:20 58.21598 20.57675 34314 ft 256 kts 15°
2026-04-28 14:20 58.23362 20.58775 33933 ft 277 kts 15°
2026-04-28 14:20 58.25223 20.59927 34018 ft 281 kts 16°
2026-04-28 14:20 58.27032 20.61055 34642 ft 265 kts 15°
2026-04-28 14:21 58.28758 20.62140 34983 ft 261 kts 16°